Погода в Тернополе

Погода в Тернополе : погода сейчас, прогноз погоды и архив. Всё, что Вы хотите узнать о погоде в Тернополе!

Хотите узнать прогноз погоды в Тернополе? Тогда Вам сюда: Погода в Тернополе

Поиск расширенной информации на нашем сайте:

Другие новости

Новости СМИ2

Главная страница сайта

Новости сайта

03.07.2017

Напоминаем, что на нашем специализированном сайте Метеоцентр.Азия вы можете получить высокодетализированные автоматические прогнозы погоды по пунктам России, СНГ и мира в авиационном формате (включающие направление и скорость ветра, видимость, явления погоды, количество и форму облачности, нижнюю и верхнюю границу облачности).


Погода в Тернополе - сегодня

Время (UTC), дата Ветер
(°,м/с) 
Видим.   Явления Облачность Т
(°С)
Тd
(°С)
f(%) Тe
(°С)
Pmin
(гПа)
dP
(гПа)
Po
(мм)
O2
(г/м3)
Тmin Tmax R s Состояние
почвы
12 20.10.17 050 (СВ) 2000 м  дымка{туман}  10/10 120 м 
[St]
+11.6 +10.6 94 +14  1018.8  -0.5  735  282           
15 20.10.17 050 (СВ) 4000 м  дымка  10/10 210 м 
[St]
+12.2 +10.7 91 +15  1018.6  -0.1  735  281           
18 20.10.17 090 (В) 4000 м  дымка  10/10 210 м 
[St]
+11.4 +10 91 +13  1019.4  0.6  735  283    +12.6       
21 20.10.17 120 (ЮВ) 4000 м  дымка  10/10 180 м 
[St]
+10.7 +9.7 94 +11  1019.5  735  283           
00 21.10.17 140 (ЮВ) 0200 м  туман  ?/?  
+10.6 +10.6 100 +13  1018.5  -0.9  735  283           
03 21.10.17 180 (Ю) 2000 м  слаб. морось{туман}  10/10 150 м 
[St]
+10.8 +10.2 96 +13  1017.7  -0.8  734  283           
06 21.10.17 180 (Ю) 2000 м  дымка{морось, туман}  10/10 200 м 
[St]
+10.9 +9.9 94 +13  1016.7  -0.9  733  282  +10.4    0.0     
09 21.10.17 200 (Ю) 4000 м  дымка  9/8 540 м средняя 
[Sc|Ac trans]
+12.7 +9.4 80 +14  1015.9  -0.6  733  280           
12 21.10.17 230 (ЮЗ) 4000 м  дымка  9/8 700 м средняя 
[Sc|Ac trans]
+14.8 +10.5 75 +17  1013.5  -2  731  278           
15 21.10.17 280 (З) 4000 м  слаб. ливневой дождь  10/8 630 м кучево-дожд., средняя 
[Cb cap|Ac und]
+13.1 +10.2 83 +14  1013.6  -0.1  731  279           
18 21.10.17 250 (З) 4000 м  дымка{ливн. осадки}  10/8 300 м кучево-дожд., средняя 
[Cb cap|Ac und]
+11.2 +9.6 90 +12  1013.7  -0.2  731  281    +14.9     
21 21.10.17 310 (СЗ) 4000 м  дымка  10/8 500 м средняя 
[Sc|Ac und]
+10.9 +9.7 92 +11  1014.1  0.4  731  282           
00 22.10.17 300 (СЗ) 4000 м  дымка  10/8 500 м средняя 
[Sc|Ac und]
+10.7 +9.7 94 +11  1014.6  0.4  732  282           
03 22.10.17 320 (СЗ) 4000 м  дымка  10/8 600 м средняя 
[Sc|Ac und]
+10.3 +9.1 92 +10  1015.3  0.6  732  283           
06 22.10.17 020 (С) 4000 м  дымка  10/10 210 м 
[St]
+8.9 +8.7 99 +7  1016.8  1.3  733  284  +8.8         
09 22.10.17 060 (СВ) 4000 м  в посл. час морось  10/10 210 м 
[St]
+7 +5.4 90 +6  1018.3  1.1  734  287           
12 22.10.17 090 (В) 10 км  {морось}  10/10 330 м 
[St]
+7.4 +4.9 84 +7  1018  -0.2  734  287           
15 22.10.17 090 (В) 10 км    10/10 360 м 
[St]
+7.2 +4.7 84 +5  1017.2  -0.8  733  287           
18 22.10.17 120 (ЮВ) 10 км    10/10 330 м 
[St]
+6.1 +4.3 88 +4  1017.5  0.1  733  288    +8.9  0.0     
21 22.10.17 120 (ЮВ) 10 км    10/10 360 м 
[St]
+5.9 +4 88 +4  1016.6  -0.9  733  288           
00 23.10.17 120 (ЮВ) 4000 м  дымка  10/10 270 м 
[St]
+5.6 +4.2 91 +3  1014.9  -1.6  731  288           
03 23.10.17 130 (ЮВ) 4000 м  слаб. ливневой дождь  10/8 210 м кучево-дожд., средняя 
[Cb cap|Ac und]
+5.3 +4.4 94 +3  1013.6  -1.3  730  288           
06 23.10.17 110 (В) 2000 м  слаб. морось{ливн. осадки}  10/10 100 м 
[St]
+5.3 +4.8 97 +3  1012.7  -0.9  730  288  +5    0.0     
09 23.10.17 110 (В) 1000 м  слаб. морось{дождь}  10/10 100 м 
[St]
+5.3 +4.8 97 +3  1012.2  -0.5  729  287           
12 23.10.17 090 (В) 2000 м  слаб. морось{дождь}  10/10 120 м 
[St]
+5.5 +4.8 95 +3  1011.7  -0.4  729  287      0.5     
Время (UTC), дата Ветер
(°,м/с) 
Видим.   Явления Облачность Т
(°С)
Тd
(°С)
f(%) Тe
(°С)
Pmin
(гПа)
dP
(гПа)
Po
(мм)
O2
(г/м3)
Тmin Tmax R s Состояние
почвы

Для получения пояснительной информации подведите курсор к названию столбца.

ПОГОДА в Тернополе - архив

Всё, что Вы хотите узнать о погоде в Тернополе - удобно и подробно!

Выберите нужную дату (начиная с 1 января 2015* года) и нажмите кнопку "Найти".
Будут отображены архивные сводки погоды по пункту Тернополь, начиная с указанной даты.


Отображать данные в формате CSV (для использования в таблицах Excel)


Внимание! Наш архив погоды предназначен исключительно для личного некоммерческого использования в познавательных целях. Если Вам необходимы официальные справки о состоянии погоды (для производственных, юридических, коммерческих и т.п. целей), обращайтесь в органы Росгидромета.

*Примечание: данная дата относится к архиву по метеостанциям СССР (Россия, СНГ, Балтия).
Архив по метеостанциям Зарубежной Европы и Азии (кроме Китая) хранится 10 дней, по другим регионам земного шара (Китай, Африка, Америка, Австралия, Океания) - 1 день.

Тернополь - район местоположения метеостанции


Название, широта, долгота, высота метеостанции:
Тернополь 49.5°ш. 25.7°д. 329 м над ур. моря [Украина]

Дополнительная информация

В oтличие oт бoльшинства пoгoдных сайтoв мы публикуем пoдрoбную метеoинфoрмацию в детальнoм прoфессиoнальнoм фoрмате.

Характеристики температуры и влажнoсти вoздуха измеряются на высoте 2 м в тени вдали oт зданий и деревьев.
Скoрoсть ветра измеряется на высoте 10 м (на урoвне рoста челoвека скoрoсть ветра ниже в 1.5-2 раза). Если метеoстанция нахoдится в гoрoде или в лесу, тo скoрoсть ветра занижена на 2-4 м/с пo сравнению с oткрытым местoм. Скoрoсть ветра над акватoриями крупных рек и oзёр, а также на вершинах хoлмoв на 2-5 м/с выше, чем в oбычных услoвиях.
Атмoсфернoе давление в разных тoчках местнoсти мoжет значительнo oтличаться oт давления на метеoстанции, в зависимoсти oт услoвий рельефа (при пoдъёме на 10 м давление пoнижается примернo на 1 мм рт.ст.).